UAL2245 KIAH-KMCO

Flight info

Callsign UAL2245
Flight time N/A
Altitude 37000
Route MMUGS4 LLA LEV Y280 CHRGE PRICY5
Aircraft B738/M-SDE2E3FGHIRWXY/LB1

Departure

Time 2026-05-06 17:54
Airport George Bush Intercontinental Airport (KIAH)

Arrival

Time N/A
Airport Orlando International Airport (KMCO)
Time Latitude Longitude Altitude Speed Heading
2026-05-06 17:31 29.98899 -95.34198 105 ft 0 kts 118°
2026-05-06 17:45 29.98902 -95.34205 106 ft 3 kts 95°
2026-05-06 17:46 29.98901 -95.34228 104 ft 3 kts 79°
2026-05-06 17:46 29.98893 -95.34249 106 ft 3 kts 44°
2026-05-06 17:46 29.98883 -95.34255 105 ft 0 kts
2026-05-06 17:48 29.98909 -95.34257 104 ft 7 kts 353°
2026-05-06 17:49 29.98957 -95.34260 106 ft 2 kts 358°
2026-05-06 17:49 29.98979 -95.34261 106 ft 9 kts 358°
2026-05-06 17:49 29.99050 -95.34265 106 ft 14 kts 343°
2026-05-06 17:49 29.99084 -95.34375 106 ft 18 kts 270°
2026-05-06 17:50 29.99085 -95.34531 106 ft 22 kts 270°
2026-05-06 17:50 29.99085 -95.34714 106 ft 25 kts 269°
2026-05-06 17:50 29.99087 -95.34903 106 ft 22 kts 272°
2026-05-06 17:50 29.99090 -95.35096 106 ft 26 kts 270°
2026-05-06 17:51 29.99090 -95.35310 106 ft 26 kts 270°
2026-05-06 17:51 29.99054 -95.35476 106 ft 19 kts 201°
2026-05-06 17:51 29.98926 -95.35496 106 ft 18 kts 210°
2026-05-06 17:51 29.98860 -95.35604 106 ft 15 kts 240°
2026-05-06 17:52 29.98837 -95.35654 105 ft 0 kts 243°
2026-05-06 17:52 29.98826 -95.35681 106 ft 4 kts 245°
2026-05-06 17:52 29.98825 -95.35684 105 ft 2 kts 244°
2026-05-06 17:52 29.98776 -95.35758 107 ft 13 kts 196°
2026-05-06 17:53 29.98718 -95.35744 108 ft 5 kts 155°
2026-05-06 17:53 29.98587 -95.35663 107 ft 52 kts 152°
2026-05-06 17:53 29.98070 -95.35347 107 ft 114 kts 152°
2026-05-06 17:53 29.97219 -95.34829 165 ft 157 kts 153°
2026-05-06 17:54 29.96265 -95.34202 768 ft 159 kts 151°
2026-05-06 17:54 29.95383 -95.33379 1411 ft 162 kts 131°
2026-05-06 17:54 29.94702 -95.32357 2056 ft 163 kts 133°
2026-05-06 17:54 29.93933 -95.31253 2234 ft 189 kts 132°
2026-05-06 17:55 29.93064 -95.30003 2436 ft 210 kts 133°
2026-05-06 17:55 29.92113 -95.28632 2622 ft 228 kts 133°
2026-05-06 17:55 29.91097 -95.27164 2784 ft 249 kts 131°
2026-05-06 17:55 29.90346 -95.25253 3185 ft 271 kts 103°
2026-05-06 17:56 29.90090 -95.23096 3920 ft 278 kts 99°
2026-05-06 17:56 29.89857 -95.20865 4819 ft 282 kts 100°
2026-05-06 17:56 29.89619 -95.18606 5675 ft 285 kts 101°
2026-05-06 17:56 29.89373 -95.16330 6425 ft 288 kts 101°
2026-05-06 17:57 29.89115 -95.14028 7025 ft 292 kts 101°
2026-05-06 17:57 29.88841 -95.11650 7658 ft 297 kts 101°
2026-05-06 17:57 29.88566 -95.09313 8480 ft 300 kts 101°
2026-05-06 17:57 29.88272 -95.06860 9232 ft 309 kts 102°
2026-05-06 17:58 29.87978 -95.04411 10123 ft 309 kts 102°
2026-05-06 17:58 29.87676 -95.01937 10516 ft 325 kts 102°
2026-05-06 17:58 29.87343 -94.99268 10662 ft 348 kts 102°
2026-05-06 17:58 29.86989 -94.96426 10819 ft 368 kts 102°
2026-05-06 17:59 29.86615 -94.93429 10951 ft 389 kts 102°
2026-05-06 17:59 29.86218 -94.90238 11227 ft 403 kts 102°
2026-05-06 17:59 29.85823 -94.87052 11616 ft 410 kts 102°
2026-05-06 17:59 29.85421 -94.83792 12142 ft 412 kts 102°
2026-05-06 18:00 29.85015 -94.80513 12698 ft 415 kts 102°
2026-05-06 18:00 29.84605 -94.77208 13220 ft 419 kts 102°
2026-05-06 18:00 29.84188 -94.73873 13749 ft 422 kts 102°
2026-05-06 18:00 29.83766 -94.70512 14223 ft 426 kts 103°
2026-05-06 18:01 29.83338 -94.67118 14722 ft 430 kts 103°
2026-05-06 18:01 29.82906 -94.63694 15245 ft 434 kts 103°
2026-05-06 18:01 29.82468 -94.60234 15782 ft 439 kts 103°
2026-05-06 18:01 29.82024 -94.56740 16250 ft 443 kts 103°
2026-05-06 18:02 29.81576 -94.53217 16716 ft 447 kts 103°
2026-05-06 18:02 29.81123 -94.49665 17200 ft 451 kts 103°
2026-05-06 18:02 29.80666 -94.46079 17686 ft 454 kts 103°
2026-05-06 18:02 29.80204 -94.42470 18172 ft 458 kts 103°
2026-05-06 18:03 29.79737 -94.38828 18580 ft 462 kts 103°
2026-05-06 18:03 29.79265 -94.35154 18974 ft 466 kts 103°
2026-05-06 18:03 29.78788 -94.31451 19343 ft 470 kts 103°
2026-05-06 18:03 29.78306 -94.27721 19721 ft 474 kts 103°
2026-05-06 18:04 29.77984 -94.25231 19978 ft 476 kts 103°
2026-05-06 18:04 29.77494 -94.21448 20361 ft 479 kts 103°
2026-05-06 18:04 29.76999 -94.17636 20738 ft 483 kts 102°
2026-05-06 18:04 29.76500 -94.13803 21109 ft 486 kts 102°
2026-05-06 18:05 29.75997 -94.09945 21483 ft 489 kts 102°
2026-05-06 18:05 29.75491 -94.06071 21919 ft 490 kts 102°
2026-05-06 18:05 29.74981 -94.02183 22274 ft 493 kts 102°
2026-05-06 18:05 29.74466 -93.98262 22593 ft 497 kts 102°
2026-05-06 18:06 29.73945 -93.94313 22931 ft 501 kts 102°
2026-05-06 18:06 29.73419 -93.90335 23263 ft 504 kts 102°
2026-05-06 18:06 29.72890 -93.86334 23583 ft 507 kts 102°
2026-05-06 18:06 29.72357 -93.82313 23854 ft 510 kts 103°
2026-05-06 18:07 29.71819 -93.78268 24132 ft 512 kts 102°
2026-05-06 18:07 29.71278 -93.74212 24414 ft 515 kts 102°
2026-05-06 18:07 29.70733 -93.70129 24679 ft 517 kts 102°
2026-05-06 18:07 29.70184 -93.66033 24933 ft 520 kts 102°
2026-05-06 18:08 29.69631 -93.61914 25187 ft 522 kts 103°
2026-05-06 18:08 29.69074 -93.57776 25438 ft 525 kts 103°
2026-05-06 18:08 29.68514 -93.53623 25686 ft 527 kts 103°
2026-05-06 18:08 29.67950 -93.49449 25932 ft 529 kts 103°
2026-05-06 18:09 29.67381 -93.45258 26176 ft 532 kts 103°
2026-05-06 18:09 29.66809 -93.41049 26431 ft 533 kts 103°
2026-05-06 18:09 29.66271 -93.37097 26647 ft 536 kts 103°
2026-05-06 18:09 29.65724 -93.33095 26851 ft 538 kts 103°
2026-05-06 18:10 29.65122 -93.28700 27079 ft 540 kts 103°
2026-05-06 18:10 29.64544 -93.24482 27295 ft 542 kts 103°
2026-05-06 18:10 29.63954 -93.20194 27513 ft 544 kts 103°
2026-05-06 18:10 29.63362 -93.15898 27771 ft 545 kts 103°
2026-05-06 18:11 29.62769 -93.11598 28090 ft 544 kts 103°
2026-05-06 18:11 29.62175 -93.07306 28426 ft 544 kts 103°
2026-05-06 18:11 29.61580 -93.03018 28739 ft 544 kts 103°
2026-05-06 18:11 29.60974 -92.98665 29028 ft 545 kts 103°
2026-05-06 18:12 29.60381 -92.94422 29335 ft 545 kts 103°
2026-05-06 18:12 29.59780 -92.90127 29674 ft 545 kts 103°
2026-05-06 18:12 29.59178 -92.85836 30027 ft 544 kts 103°
2026-05-06 18:12 29.58574 -92.81539 30309 ft 545 kts 103°
2026-05-06 18:13 29.57969 -92.77242 30583 ft 545 kts 103°
2026-05-06 18:13 29.57363 -92.72953 30876 ft 545 kts 103°
2026-05-06 18:13 29.56755 -92.68659 31166 ft 544 kts 103°
2026-05-06 18:13 29.56145 -92.64363 31447 ft 545 kts 103°
2026-05-06 18:14 29.55533 -92.60067 31709 ft 546 kts 103°
2026-05-06 18:14 29.54921 -92.55773 31978 ft 546 kts 103°
2026-05-06 18:14 29.54307 -92.51483 32297 ft 545 kts 103°
2026-05-06 18:14 29.53689 -92.47171 32609 ft 545 kts 103°
2026-05-06 18:15 29.53073 -92.42881 32912 ft 545 kts 103°
2026-05-06 18:15 29.52455 -92.38585 33201 ft 545 kts 102°
2026-05-06 18:15 29.51835 -92.34288 33495 ft 545 kts 102°
2026-05-06 18:15 29.51214 -92.29999 33838 ft 543 kts 102°
2026-05-06 18:16 29.50596 -92.25733 34182 ft 541 kts 102°
2026-05-06 18:16 29.49976 -92.21470 34447 ft 541 kts 102°
2026-05-06 18:16 29.49356 -92.17212 34700 ft 541 kts 102°
2026-05-06 18:16 29.48734 -92.12954 34996 ft 540 kts 102°
2026-05-06 18:17 29.48114 -92.08715 35315 ft 538 kts 103°
2026-05-06 18:17 29.47495 -92.04496 35621 ft 536 kts 103°
2026-05-06 18:17 29.46875 -92.00280 35908 ft 535 kts 103°
2026-05-06 18:17 29.46256 -91.96079 36193 ft 533 kts 103°
2026-05-06 18:18 29.45637 -91.91887 36512 ft 531 kts 103°
2026-05-06 18:18 29.45020 -91.87718 36821 ft 529 kts 103°
2026-05-06 18:18 29.44405 -91.83573 36994 ft 530 kts 103°
2026-05-06 18:18 29.43778 -91.79367 36971 ft 534 kts 103°